Location: Vancouver
(49.2500°N, 123.1330°W)
Time: 09:55:39
(UTC-07:00)

Cosmos 2333 Rocket - Visible Passes

Search period start: 01 July 2015 00:00
Search period end: 11 July 2015 00:00
Orbit: 839 x 862 km, 70.8° (Epoch: 01 July)

Date Brightness Start Highest point End Pass type
(mag) Time Alt. Az. Time Alt. Az. Time Alt. Az.
01 Jul 3.5 00:46:18 10° NNW 00:51:32 37° NE 00:56:45 10° ESE visible
01 Jul 2.6 02:30:34 10° NW 02:35:59 46° WSW 02:39:09 23° S visible
01 Jul 4.8 22:51:08 10° N 22:53:09 12° NNE 22:55:19 10° NE visible
02 Jul 3.5 00:34:04 10° NNW 00:39:17 37° NE 00:44:31 10° ESE visible
02 Jul 2.6 02:18:19 10° NW 02:23:45 46° WSW 02:26:36 25° SSW visible
02 Jul 4.7 22:38:54 10° N 22:40:55 12° NNE 22:43:05 10° NE visible
03 Jul 3.4 00:21:50 10° NNW 00:27:03 37° NE 00:32:10 10° ESE visible
03 Jul 2.6 02:06:06 10° NW 02:11:30 46° WSW 02:14:08 27° SSW visible
03 Jul 4.7 22:26:39 10° N 22:28:41 12° NNE 22:30:50 10° NE visible
04 Jul 3.4 00:09:35 10° NNW 00:14:49 37° NE 00:19:46 11° ESE visible
04 Jul 2.6 01:53:51 10° NW 01:59:16 46° WSW 02:01:44 29° SSW visible
04 Jul 4.7 22:14:25 10° N 22:16:27 12° NNE 22:18:36 10° NE visible
04 Jul 3.4 23:57:21 10° NNW 00:02:35 37° NE 00:07:25 12° ESE visible
05 Jul 2.6 01:41:37 10° NW 01:47:01 46° WSW 01:49:23 30° SSW visible
05 Jul 4.7 22:02:11 10° N 22:04:12 12° NNE 22:06:22 10° NE visible
05 Jul 3.4 23:45:07 10° NNW 23:50:20 37° NE 23:55:06 12° ESE visible
06 Jul 2.6 01:29:22 10° NW 01:34:47 46° WSW 01:37:04 30° SSW visible
06 Jul 3.3 23:32:53 10° NNW 23:38:06 37° NE 23:42:50 12° ESE visible
07 Jul 2.7 01:17:08 10° NW 01:22:33 46° WSW 01:24:49 30° SSW visible
07 Jul 3.3 23:20:38 10° NNW 23:25:52 37° NE 23:30:37 12° ESE visible
08 Jul 2.7 01:04:54 10° NW 01:10:19 46° WSW 01:12:35 30° SSW visible
08 Jul 3.3 23:08:24 10° NNW 23:13:38 37° NE 23:18:25 12° ESE visible
09 Jul 2.7 00:52:40 10° NW 00:58:05 46° WSW 01:00:24 30° SSW visible
09 Jul 3.3 22:56:10 10° NNW 23:01:23 37° NE 23:06:16 12° ESE visible
10 Jul 2.7 00:40:26 10° NW 00:45:50 46° WSW 00:48:16 29° SSW visible
10 Jul 3.2 22:43:56 10° NNW 22:49:09 37° NE 22:54:09 11° ESE visible
